Location: Naloco
(16.5478°S, 37.1017°E)
Time: 02:53:23
(UTC+00:00)

Delta 128 - Pass Details

Date: 13 August 2020
Orbit: 608 x 1216 km, 28.0° (Epoch: 23 September)

Event Time Altitude Azimuth Distance (km) Brightness Sun altitude
Rises 15:44:04 0° 298° (WNW) 2,952 8.9 -5.9°
Reaches altitude 10° 15:46:17 10° 299° (WNW) 2,098 7.8 -6.4°
Maximum altitude 15:51:12 80° 26° (NNE) 756 4.0 -7.5°
Enters shadow 15:56:56 10° 112° (ESE) 2,443 5.9 -8.9°
